Location: *
(58.7167°N, 26.1833°E)
Time: 09:01:51
(UTC+00:00)

Resurs 01 Rocket - Pass Details

Date: 25 August 2019
Orbit: 635 x 643 km, 98.0° (Epoch: 17 September)

Event Time Altitude Azimuth Distance (km) Brightness Sun altitude
Rises 19:24:03 0° 198° (SSW) 2,927 4.7 -12.3°
Reaches altitude 10° 19:26:33 10° 211° (SSW) 2,024 4.0 -12.5°
Maximum altitude 19:30:14 26° 268° (W) 1,271 3.6 -12.9°
Drops below altitude 10° 19:33:58 10° 325° (NW) 2,039 5.7 -13.2°
Sets 19:36:30 0° 338° (NNW) 2,954 6.5 -13.4°
